Previsão horária em Abapo

Hoje, 11 Abril, Domingo

Tempo Temperatura Precipitação Vento Pressão Humidade
00:00 +23°C° 0 mm 1 m/s 707 mmHg 90%
01:00 +23°C° 0 mm 1 m/s 707 mmHg 91%
02:00 +23°C° 0 mm 1 m/s 707 mmHg 92%
03:00 +21°C° 0 mm 0 m/s 707 mmHg 92%
04:00 +20°C° 0 mm 0 m/s 708 mmHg 93%
05:00 +20°C° 0 mm 0 m/s 708 mmHg 93%
06:00 +21°C° 0 mm 0 m/s 709 mmHg 88%
07:00 +22°C° 0 mm 0 m/s 710 mmHg 83%
08:00 +23°C° 0 mm 0 m/s 710 mmHg 78%
09:00 +26°C° 0.4 mm 1 m/s 711 mmHg 78%
10:00 +27°C° 0.4 mm 1 m/s 711 mmHg 78%
11:00 +27°C° 0.4 mm 2 m/s 712 mmHg 78%
12:00 +25°C° 1.5 mm 2 m/s 712 mmHg 83%
13:00 +23°C° 1.5 mm 2 m/s 711 mmHg 89%
14:00 +20°C° 1.5 mm 2 m/s 711 mmHg 95%
15:00 +20°C° 0.1 mm 2 m/s 711 mmHg 95%
16:00 +20°C° 0.1 mm 1 m/s 711 mmHg 95%
17:00 +20°C° 0.1 mm 1 m/s 712 mmHg 94%
18:00 +20°C° 0 mm 1 m/s 712 mmHg 93%
19:00 +20°C° 0 mm 1 m/s 713 mmHg 92%
20:00 +20°C° 0 mm 1 m/s 713 mmHg 91%
21:00 +20°C° 0 mm 1 m/s 714 mmHg 90%
22:00 +19°C° 0 mm 1 m/s 714 mmHg 89%
23:00 +19°C° 0 mm 1 m/s 714 mmHg 88%

Amanhã, 12 Abril, Segunda-feira

Tempo Temperatura Precipitação Vento Pressão Humidade
00:00 +19°C° 0 mm 1 m/s 714 mmHg 87%
01:00 +19°C° 0 mm 1 m/s 714 mmHg 87%
02:00 +19°C° 0 mm 1 m/s 713 mmHg 87%
03:00 +19°C° 0 mm 1 m/s 713 mmHg 86%
04:00 +19°C° 0 mm 1 m/s 713 mmHg 85%
05:00 +16°C° 0 mm 0 m/s 713 mmHg 85%
06:00 +17°C° 0 mm 0 m/s 714 mmHg 83%
07:00 +17°C° 0 mm 0 m/s 714 mmHg 81%
08:00 +18°C° 0 mm 0 m/s 715 mmHg 78%
09:00 +20°C° 0 mm 0 m/s 715 mmHg 69%
10:00 +22°C° 0 mm 0 m/s 715 mmHg 60%
11:00 +24°C° 0 mm 0 m/s 716 mmHg 50%
12:00 +26°C° 0 mm 1 m/s 715 mmHg 51%
13:00 +27°C° 0 mm 1 m/s 714 mmHg 52%
14:00 +27°C° 0 mm 2 m/s 713 mmHg 53%
15:00 +26°C° 0 mm 1 m/s 713 mmHg 56%
16:00 +26°C° 0 mm 1 m/s 712 mmHg 58%
17:00 +25°C° 0 mm 1 m/s 712 mmHg 61%
18:00 +24°C° 0 mm 1 m/s 712 mmHg 68%
19:00 +22°C° 0 mm 1 m/s 712 mmHg 75%
20:00 +21°C° 0 mm 1 m/s 712 mmHg 82%
21:00 +21°C° 0 mm 1 m/s 713 mmHg 82%
22:00 +20°C° 0 mm 1 m/s 713 mmHg 83%
23:00 +20°C° 0 mm 1 m/s 714 mmHg 83%

Depois de amanhã, 13 Abril, Terça-feira

Tempo Temperatura Precipitação Vento Pressão Humidade
00:00 +20°C° 0 mm 1 m/s 714 mmHg 80%
01:00 +20°C° 0 mm 1 m/s 714 mmHg 77%
02:00 +19°C° 0 mm 0 m/s 714 mmHg 74%
03:00 +19°C° 0 mm 0 m/s 714 mmHg 73%
04:00 +19°C° 0 mm 0 m/s 714 mmHg 71%
05:00 +19°C° 0 mm 0 m/s 714 mmHg 70%
06:00 +20°C° 0 mm 0 m/s 714 mmHg 68%
07:00 +20°C° 0 mm 0 m/s 715 mmHg 66%
08:00 +21°C° 0 mm 0 m/s 715 mmHg 64%
09:00 +22°C° 0 mm 0 m/s 715 mmHg 60%
10:00 +23°C° 0 mm 0 m/s 715 mmHg 56%
11:00 +24°C° 0 mm 0 m/s 715 mmHg 52%
12:00 +28°C° 0 mm 1 m/s 715 mmHg 48%
13:00 +29°C° 0 mm 1 m/s 714 mmHg 44%
14:00 +31°C° 0 mm 1 m/s 713 mmHg 40%
15:00 +31°C° 0 mm 1 m/s 713 mmHg 40%
16:00 +31°C° 0 mm 1 m/s 712 mmHg 40%
17:00 +31°C° 0 mm 1 m/s 712 mmHg 41%
18:00 +29°C° 0 mm 1 m/s 712 mmHg 45%
19:00 +27°C° 0 mm 1 m/s 712 mmHg 50%
20:00 +26°C° 0 mm 1 m/s 712 mmHg 55%
21:00 +26°C° 0 mm 1 m/s 712 mmHg 56%
22:00 +25°C° 0 mm 1 m/s 712 mmHg 57%
23:00 +25°C° 0 mm 1 m/s 713 mmHg 58%

14 Abril, Quarta-feira

Tempo Temperatura Precipitação Vento Pressão Humidade
00:00 +25°C° 0 mm 1 m/s 712 mmHg 58%
01:00 +24°C° 0 mm 1 m/s 712 mmHg 59%
02:00 +24°C° 0 mm 1 m/s 712 mmHg 60%
03:00 +24°C° 0 mm 1 m/s 712 mmHg 61%
04:00 +21°C° 0 mm 0 m/s 712 mmHg 63%
05:00 +21°C° 0 mm 0 m/s 712 mmHg 65%
06:00 +22°C° 0 mm 0 m/s 712 mmHg 62%
07:00 +23°C° 0 mm 0 m/s 712 mmHg 59%
08:00 +23°C° 0 mm 0 m/s 713 mmHg 57%
09:00 +28°C° 0 mm 1 m/s 712 mmHg 49%
10:00 +30°C° 0 mm 2 m/s 712 mmHg 42%
11:00 +34°C° 0 mm 3 m/s 712 mmHg 35%
12:00 +34°C° 0 mm 3 m/s 711 mmHg 33%
13:00 +35°C° 0 mm 4 m/s 710 mmHg 31%
14:00 +35°C° 0 mm 5 m/s 709 mmHg 30%
15:00 +35°C° 0 mm 4 m/s 708 mmHg 31%
16:00 +34°C° 0 mm 4 m/s 708 mmHg 32%
17:00 +34°C° 0 mm 4 m/s 708 mmHg 33%
18:00 +31°C° 0 mm 3 m/s 708 mmHg 40%
19:00 +28°C° 0 mm 3 m/s 708 mmHg 46%
20:00 +26°C° 0 mm 2 m/s 709 mmHg 52%
21:00 +25°C° 0 mm 1 m/s 709 mmHg 56%
22:00 +24°C° 0 mm 1 m/s 709 mmHg 61%
23:00 +23°C° 0 mm 1 m/s 709 mmHg 65%

15 Abril, Quinta-feira

Tempo Temperatura Precipitação Vento Pressão Humidade
00:00 +22°C° 0 mm 1 m/s 709 mmHg 67%
01:00 +22°C° 0 mm 1 m/s 709 mmHg 69%
02:00 +21°C° 0 mm 1 m/s 709 mmHg 70%
03:00 +21°C° 0 mm 1 m/s 709 mmHg 71%
04:00 +21°C° 0 mm 1 m/s 709 mmHg 72%
05:00 +20°C° 0 mm 1 m/s 709 mmHg 72%
06:00 +22°C° 0 mm 1 m/s 709 mmHg 67%
07:00 +24°C° 0 mm 1 m/s 710 mmHg 61%
08:00 +23°C° 0 mm 0 m/s 710 mmHg 55%
09:00 +28°C° 0 mm 1 m/s 710 mmHg 48%
10:00 +30°C° 0 mm 2 m/s 710 mmHg 41%
11:00 +34°C° 0 mm 2 m/s 710 mmHg 35%
12:00 +35°C° 0 mm 2 m/s 709 mmHg 34%
13:00 +36°C° 0 mm 3 m/s 708 mmHg 33%
14:00 +36°C° 0 mm 3 m/s 707 mmHg 32%
15:00 +35°C° 0 mm 3 m/s 707 mmHg 35%
16:00 +35°C° 0 mm 3 m/s 706 mmHg 38%
17:00 +34°C° 0 mm 3 m/s 706 mmHg 41%
18:00 +31°C° 0 mm 3 m/s 706 mmHg 47%
19:00 +29°C° 0 mm 3 m/s 707 mmHg 53%
20:00 +27°C° 0 mm 2 m/s 707 mmHg 59%
21:00 +26°C° 0 mm 2 m/s 707 mmHg 63%
22:00 +25°C° 0 mm 1 m/s 708 mmHg 67%
23:00 +23°C° 0 mm 1 m/s 708 mmHg 72%

16 Abril, Sexta-feira

Tempo Temperatura Precipitação Vento Pressão Humidade
00:00 +23°C° 0 mm 1 m/s 708 mmHg 74%
01:00 +22°C° 0 mm 1 m/s 708 mmHg 76%
02:00 +22°C° 0 mm 1 m/s 707 mmHg 78%
03:00 +21°C° 0 mm 1 m/s 707 mmHg 79%
04:00 +21°C° 0 mm 1 m/s 707 mmHg 80%
05:00 +21°C° 0 mm 1 m/s 708 mmHg 81%
06:00 +21°C° 0 mm 0 m/s 708 mmHg 75%
07:00 +22°C° 0 mm 0 m/s 709 mmHg 68%
08:00 +24°C° 0 mm 0 m/s 710 mmHg 61%
09:00 +29°C° 0 mm 1 m/s 710 mmHg 53%
10:00 +31°C° 0 mm 1 m/s 710 mmHg 45%
11:00 +34°C° 0 mm 1 m/s 710 mmHg 36%
12:00 +36°C° 0 mm 2 m/s 709 mmHg 35%
13:00 +36°C° 0 mm 2 m/s 708 mmHg 34%
14:00 +37°C° 0 mm 2 m/s 707 mmHg 33%
15:00 +36°C° 0 mm 3 m/s 706 mmHg 36%
16:00 +35°C° 0 mm 3 m/s 706 mmHg 39%
17:00 +34°C° 0 mm 3 m/s 706 mmHg 41%
18:00 +31°C° 0 mm 3 m/s 706 mmHg 51%
19:00 +28°C° 0 mm 2 m/s 707 mmHg 61%
20:00 +26°C° 0 mm 1 m/s 707 mmHg 71%
21:00 +25°C° 0 mm 1 m/s 708 mmHg 75%
22:00 +24°C° 0 mm 1 m/s 708 mmHg 79%
23:00 +23°C° 0 mm 1 m/s 708 mmHg 83%
Mostrar mais